This demonstration page uses our WeatherBlox Daily Observations layout. Learn more.

Left ArrowRight Arrow

Hourly Observations for April 1, 2022

Temp ( °F °C ) Dew Point ( °F °C ) Humidity (%) Winds ( mph kmh ) Pressure ( in mb ) Visibility ( mi km ) Precip ( " mm )
12:53 am 00:53 Clear 61 16.1 24 -4.4 24 24 NNW 9 15 29.88 1012 10 16 0.00 0.00
1:53 am 01:53 Clear 61 16.1 25 -3.9 25 25 NNW 12 19 29.87 1012 10 16 0.00 0.00
2:53 am 02:53 Clear 60 15.6 26 -3.3 27 27 NNW 9 15 29.88 1012 10 16 0.00 0.00
3:53 am 03:53 Clear 59 15 27 -2.8 29 29 NNW 7 11 29.88 1012 10 16 0.00 0.00
4:53 am 04:53 Clear 57 13.9 28 -2.2 33 33 NW 6 9 29.89 1012 10 16 0.00 0.00
5:53 am 05:53 Clear 57 13.9 29 -1.7 34 34 NW 6 9 29.89 1012 10 16 0.00 0.00
6:53 am 06:53 Sunny 57 13.9 29 -1.7 34 34 NNW 10 17 29.90 1013 10 16 0.00 0.00
7:53 am 07:53 Sunny 59 15 29 -1.7 32 32 N 8 13 29.91 1013 10 16 0.00 0.00
8:53 am 08:53 Sunny 63 17.2 30 -1.1 29 29 NNW 10 17 29.92 1013 10 16 0.00 0.00
9:53 am 09:53 Sunny 65 18.3 28 -2.2 25 25 N 13 20 29.92 1013 10 16 0.00 0.00
10:53 am 10:53 Sunny 70 21.1 29 -1.7 22 22 N 12 19 29.92 1013 10 16 0.00 0.00
11:53 am 11:53 Sunny 73 22.8 29 -1.7 19 19 VRB 7 11 29.91 1013 10 16 0.00 0.00
1:53 pm 13:53 Sunny 79 26.1 30 -1.1 17 17 NNE 9 15 29.86 1011 10 16 0.00 0.00
2:53 pm 14:53 Sunny 79 26.1 28 -2.2 15 15 VRB 5 7 29.85 1011 10 16 0.00 0.00
3:53 pm 15:53 Sunny 81 27.2 27 -2.8 14 14 Calm 29.83 1010 10 16 0.00 0.00
4:53 pm 16:53 Sunny 80 26.7 29 -1.7 15 15 ENE 6 9 29.82 1010 10 16 0.00 0.00
5:53 pm 17:53 Sunny 79 26.1 29 -1.7 16 16 SSE 7 11 29.82 1010 10 16 0.00 0.00
6:53 pm 18:53 Sunny 77 25 30 -1.1 18 18 SSW 6 9 29.83 1010 10 16 0.00 0.00
7:53 pm 19:53 Clear 71 21.7 35 1.7 27 27 S 7 11 29.83 1010 10 16 0.00 0.00
8:53 pm 20:53 Clear 70 21.1 35 1.7 28 28 S 8 13 29.85 1011 10 16 0.00 0.00
9:53 pm 21:53 Clear 65 18.3 39 3.9 39 39 NE 3 6 29.87 1012 10 16 0.00 0.00
10:53 pm 22:53 Clear 65 18.3 37 2.8 36 36 S 5 7 29.88 1012 10 16 0.00 0.00
11:53 pm 23:53 Clear 64 17.8 36 2.2 35 35 S 5 7 29.91 1013 10 16 0.00 0.00

Powered by AerisWeather